User: anonymous   Login
Location: Hanover
(52.3667°N, 9.7167°E)
Time: 15:29:25
(UTC+02:00)
Language:

N. Korean satellite - Orbit

View from above orbital plane
View from above orbital plane
View from above satellite
View from above satellite

Ground track
Ground track

The orbit data is extracted from the following two-line orbital elements,

1 39026U 12072A   21266.88340597  .00005201  00000-0  17393-3 0  9997
2 39026  97.2516 257.4210 0036234  36.0365 324.3308 15.30781688488082
Epoch (UTC): 23 September 2021 21:12:06
Eccentricity: 0.0036234
inclination: 97.2516°
perigee height: 448 km
apogee height: 498 km
right ascension of ascending node: 257.4210°
argument of perigee: 36.0365°
revolutions per day: 15.30781688
mean anomaly at epoch: 324.3308°
orbit number at epoch: 48808

The dashed part of the orbit path shows where the satellite is in the earth's shadow,  

DLR